User: anonymous   Login
Location: Unspecified
(0.0000°N, 0.0000°E)
Time: 09:24:56
(UTC+00:00)
Language:

LES 1 - Orbit

View from above orbital plane
View from above orbital plane
View from above satellite
View from above satellite

Ground track
Ground track

The orbit data is extracted from the following two-line orbital elements,

1  1002U 65008C   20219.85873627 +.00000014 +00000-0 +72391-3 0  9992
2  1002 032.1462 075.0487 0013940 098.7914 261.4163 09.88353401004434
Epoch (UTC): 06 August 2020 20:36:34
Eccentricity: 0.0013940
inclination: 32.1462°
perigee height: 2781 km
apogee height: 2806 km
right ascension of ascending node: 75.0487°
argument of perigee: 98.7914°
revolutions per day: 9.88353401
mean anomaly at epoch: 261.4163°
orbit number at epoch: 443

The dashed part of the orbit path shows where the satellite is in the earth's shadow,  

DLR